Upstream stations:
Downstream station:
SHEF ID: MARK1 COTTONWOOD R AT MARION, KS
STATION TYPE:
Regulating: Stage = 16.00, Flow = 4479
PRECIP STAGE RIV-FLOW BAT-LOAD
in ft cfs volt
Ccp-Rev Ccp-Rev Ccp-Rev Ccp-Rev
(US/Central)
09/03 00:00 0.13 4.53 3 12.65
09/03 01:00 0.12 4.52 3 12.60
09/03 02:00 0.01 4.52 3 12.60
09/03 03:00 0.02 4.51 3 12.60
09/03 04:00 0.05 4.52 3 12.60
09/03 05:00 0.18 4.53 3 12.54
09/03 06:00 0.06 4.53 3 12.54
09/03 07:00 0.01 4.53 3 12.54
09/03 08:00 0.00 4.52 3 12.54
09/03 09:00 0.00 4.52 3 12.60
09/03 10:00 0.00 4.51 3 13.07
09/03 11:00 0.00 4.51 3 13.00
09/03 12:00 0.00 4.50 3 13.53
09/03 13:00 0.00 4.50 3 13.59
09/03 14:00 0.00 4.50 3 13.59
09/03 15:00 0.00 4.50 3 13.65
09/03 16:00 0.00 4.50 3 13.53
09/03 17:00 0.00 4.49 3 13.53
09/03 18:00 0.00 4.49 3 13.36
09/03 19:00 0.00 4.49 3 13.00
09/03 20:00 0.00 4.49 3 12.65
09/03 21:00 0.00 4.49 3 12.65
09/03 22:00 0.00 4.48 3 12.65
09/03 23:00 0.02 4.48 3 12.65